TimeCDT,TemperatureF,Dew PointF,Humidity,Sea Level PressureIn,VisibilityMPH,Wind Direction,Wind SpeedMPH,Gust SpeedMPH,PrecipitationIn,Events,Conditions,WindDirDegrees,DateUTC
12:56 AM,51.1,37.0,59,29.91,-9999.0,Calm,Calm,-,N/A,,Unknown,0,2012-10-03 05:56:00
1:56 AM,52.0,37.0,57,29.91,-9999.0,SSE,3.5,-,N/A,,Unknown,160,2012-10-03 06:56:00
2:56 AM,44.1,37.0,76,29.91,-9999.0,Calm,Calm,-,N/A,,Unknown,0,2012-10-03 07:56:00
3:56 AM,45.0,37.0,74,29.91,-9999.0,Calm,Calm,-,N/A,,Unknown,0,2012-10-03 08:56:00
4:56 AM,51.1,37.9,61,29.91,-9999.0,SE,3.5,-,N/A,,Unknown,140,2012-10-03 09:56:00
5:56 AM,48.0,37.0,66,29.91,-9999.0,SE,3.5,-,N/A,,Unknown,130,2012-10-03 10:56:00
6:56 AM,50.0,37.9,63,29.91,-9999.0,ESE,6.9,-,N/A,,Unknown,120,2012-10-03 11:56:00
7:56 AM,50.0,37.9,63,29.92,-9999.0,ESE,4.6,-,N/A,,Unknown,110,2012-10-03 12:56:00
8:56 AM,55.0,39.9,57,29.92,-9999.0,SE,5.8,-,N/A,,Unknown,130,2012-10-03 13:56:00
9:56 AM,63.0,39.9,43,29.92,-9999.0,SSE,8.1,-,N/A,,Unknown,160,2012-10-03 14:56:00
10:56 AM,69.1,41.0,36,29.91,-9999.0,South,12.7,-,N/A,,Unknown,190,2012-10-03 15:56:00
11:56 AM,73.9,43.0,33,29.89,-9999.0,South,18.4,24.2,N/A,,Unknown,180,2012-10-03 16:56:00
12:56 PM,78.1,45.0,31,29.86,-9999.0,SSW,19.6,26.5,N/A,,Unknown,200,2012-10-03 17:56:00
1:56 PM,80.1,46.0,30,29.83,-9999.0,South,21.9,27.6,N/A,,Unknown,190,2012-10-03 18:56:00
2:56 PM,82.0,46.9,29,29.81,-9999.0,South,16.1,31.1,N/A,,Unknown,190,2012-10-03 19:56:00
3:56 PM,82.9,48.0,29,29.80,-9999.0,South,15.0,25.3,N/A,,Unknown,190,2012-10-03 20:56:00
4:56 PM,82.0,48.0,30,29.79,-9999.0,South,19.6,29.9,N/A,,Unknown,190,2012-10-03 21:56:00
5:56 PM,81.0,48.0,31,29.81,-9999.0,South,19.6,25.3,N/A,,Unknown,180,2012-10-03 22:56:00
6:56 PM,78.1,48.9,36,29.82,-9999.0,South,15.0,-,N/A,,Unknown,180,2012-10-03 23:56:00
7:56 PM,75.0,48.9,40,29.85,-9999.0,SSE,9.2,-,N/A,,Unknown,160,2012-10-04 00:56:00
8:56 PM,72.0,48.9,44,29.87,-9999.0,South,9.2,-,N/A,,Unknown,170,2012-10-04 01:56:00
9:56 PM,70.0,50.0,49,29.88,-9999.0,South,9.2,-,N/A,,Unknown,170,2012-10-04 02:56:00
10:56 PM,68.0,50.0,52,29.89,-9999.0,South,8.1,18.4,N/A,,Unknown,170,2012-10-04 03:56:00
11:56 PM,66.0,51.1,59,29.91,-9999.0,South,4.6,-,N/A,,Unknown,170,2012-10-04 04:56:00